Home > Weather > Fetsund > Past weeks

Flag for Norway Past Weather in Fetsund, Norway — Yesterday and Last 2 Weeks

Now
62 °F

Refreshingly cool.


Feels Like: 62 °F
Forecast: 51 / 66 °F
Wind: 3 mph from South

Location: Oslo-Blindern

Current Time: Jul 31, 2016 at 9:38:44 AM

Latest Report: Jul 31, 2016 at 9:00 AM


Visibility: N/A

Pressure: 29.65 "Hg

Humidity: 56%

Dew Point: 46 °F

Location of FetsundLocation

Past Weather in Fetsund — Graph

°F

Fetsund Temperature Yesterday

Maximum temperature yesterday: 71 °F (at 3:00 PM)
Minimum temperature yesterday: 57 °F (at 4:00 AM)
Average temperature yesterday: 62 °F

High & Low Weather Summary for the Past Weeks

 TemperatureHumidityPressure
High82 °F (Jul 21, 3:00 PM)97% (Jul 30, 1:00 AM)30.13 "Hg (Jul 30, 1:00 AM)
Low49 °F (Jul 17, 5:00 AM)37% (Jul 22, 7:00 PM)29.60 "Hg (Jul 30, 9:00 PM)
Average65 °F72%29.92 "Hg
* Reported Jul 16 8:00 AM — Jul 31 8:00 AM, Fetsund, Weather by CustomWeather, © 2016

Note: Actual official high and low records may vary slightly from our data, if they occured in-between our weather recording intervals... More about our weather records

Advertising

Fetsund Weather History for the Previous 24 Hours

Scroll right to see more
 ConditionsComfort  
Time TempWeatherWind HumidityBarometerVisibility
8:00 AM
Sun, Jul 31
60 °FCool.2 mph61%29.65 "HgN/A
7:00 AM53 °FCool.No wind83%29.64 "HgN/A
6:00 AM49 °FCool.1 mph91%29.64 "HgN/A
5:00 AM49 °FCool.1 mph91%29.64 "HgN/A
4:00 AM50 °FCool.1 mph90%29.63 "HgN/A
3:00 AM53 °FCool.3 mph78%29.63 "HgN/A
2:00 AM55 °FCool.3 mph75%29.62 "HgN/A
1:00 AM58 °FCool.2 mph66%29.62 "HgN/A
12:00 AM57 °FCool.2 mph87%29.62 "HgN/A
11:00 PM
Sat, Jul 30
58 °FCool.1 mph93%29.61 "HgN/A
10:00 PM60 °FCool.1 mph89%29.60 "HgN/A
9:00 PM62 °FCool.2 mph81%29.60 "HgN/A
8:00 PM63 °FScattered clouds.2 mph72%29.60 "Hg47 mi
7:00 PM63 °FMild.1 mph78%29.62 "HgN/A
6:00 PM60 °FCool.1 mph88%29.62 "HgN/A
5:00 PM62 °FThunderstorms. Scattered clouds.7 mph66%29.63 "Hg47 mi
4:00 PM71 °FMild.3 mph57%29.61 "HgN/A
3:00 PM71 °FMild.3 mph58%29.61 "HgN/A
2:00 PM70 °FScattered clouds.3 mph54%29.62 "Hg47 mi
1:00 PM69 °FMild.2 mph54%29.62 "HgN/A
12:00 PM67 °FMild.2 mph64%29.63 "HgN/A
11:00 AM64 °FPartly sunny.2 mph73%29.64 "Hg47 mi
10:00 AM64 °FMild.2 mph72%29.64 "HgN/A
9:00 AM64 °FMild.2 mph79%29.64 "HgN/A
Weather by CustomWeather, © 2016

See weather overviewHow to use our weather pages